Location: Veytaux
(46.4185°N, 6.9320°E)
Time: 08:10:27
(UTC+00:00)

Resurs 1-4 Rocket - Pass Details

Date: 27 May 2022
Orbit: 800 x 813 km, 98.7° (Epoch: 01 July)

Event Time Altitude Azimuth Distance (km) Brightness Sun altitude
Rises 02:37:05 0° 3° (N) 3,322 6.1 -10.1°
Reaches altitude 10° 02:39:55 10° 348° (NNW) 2,389 5.0 -9.8°
Maximum altitude 02:43:48 21° 300° (WNW) 1,721 3.7 -9.3°
Drops below altitude 10° 02:47:41 10° 252° (WSW) 2,382 4.0 -8.8°
Enters shadow 02:48:06 - 249° (WSW) 2,509 4.1 -8.8°
